Stations météo

Publicité
Berus, Allemagne (10704): Température de l'air & dewpoint: 18.02.2020 22:00:00 - 24.02.2020 22:00:00 (CET)Berus, Allemagne (10704): Température de l'air 5cm & Température de l'air -5cm: 18.02.2020 22:00:00 - 24.02.2020 22:00:00 (CET)Berus, Allemagne (10704): Température de l'air -20cm & Température de l'air -100cm: 18.02.2020 22:00:00 - 24.02.2020 22:00:00 (CET)Berus, Allemagne (10704): Vitesse du vent & gusts: 18.02.2020 22:00:00 - 24.02.2020 22:00:00 (CET)Berus, Allemagne (10704): Direction du vent: 18.02.2020 22:00:00 - 24.02.2020 22:00:00 (CET)Berus, Allemagne (10704): reduced air pressure: 18.02.2020 22:00:00 - 24.02.2020 22:00:00 (CET)Berus, Allemagne (10704): visibility: 18.02.2020 22:00:00 - 24.02.2020 22:00:00 (CET)Berus, Allemagne (10704): Ensoleillement: 18.02.2020 22:00:00 - 24.02.2020 22:00:00 (CET)Berus, Allemagne (10704): Quantités de précipitations: 18.02.2020 22:00:00 - 24.02.2020 22:00:00 (CET)
Date & Time tt [°C] td [°C] tt 5cm [°C] tt -5cm [°C] tt -20cm [°C] tt -100cm [°C] ff [km/h] ff [knt] fx [km/h] fx [knt] dd ppp [hPa] vv [km] sd [min] rr [mm]
24.02.2020 22:00:00 8,8 4,9 8,3 7,0 7,1 6,4 39 21 57 31 SW 1011,5 67 0 -
24.02.2020 21:00:00 9,0 4,7 8,5 7,2 7,1 6,4 47 25 78 42 WSW 1012,3 75 0 -
24.02.2020 20:00:00 9,0 5,2 8,4 7,6 7,2 6,4 41 22 71 39 WSW 1012,7 66 0 -
24.02.2020 19:00:00 9,6 5,5 8,6 7,8 7,2 6,4 44 24 68 37 WSW 1012,3 75 0 -
24.02.2020 18:00:00 9,7 7,0 9,0 8,6 7,0 6,4 27 15 50 27 WSW 1012,8 75 8 -
24.02.2020 17:00:00 9,8 7,2 9,5 9,4 6,8 6,3 35 19 59 32 WSW 1013,8 75 14 -
24.02.2020 16:00:00 10,5 8,5 10,6 9,3 6,7 6,3 34 18 56 30 SW 1014,2 66 2 -
24.02.2020 15:00:00 10,0 8,8 9,8 8,9 6,5 6,3 29 16 49 26 SW 1015,6 59 0 -
24.02.2020 14:00:00 9,5 8,8 9,6 8,4 6,3 6,3 30 16 46 25 SW 1017,3 43 0 -
24.02.2020 13:00:00 8,9 8,7 9,1 7,7 6,2 6,3 24 13 39 21 SSW 1018,6 23 0 -
24.02.2020 12:00:00 7,1 7,0 7,5 7,0 6,2 6,3 19 10 27 15 SSW 1020,3 0,2 0 -
24.02.2020 11:00:00 5,3 5,1 5,8 6,2 6,2 6,3 17 9 23 12 SSW 1021,6 0,1 0 -
24.02.2020 10:00:00 4,5 4,3 4,8 5,8 6,2 6,3 15 8 21 12 S 1023,1 0,2 0 -
24.02.2020 09:00:00 4,2 4,0 4,5 5,6 6,3 6,3 10 6 16 9 S 1024,1 0,2 0 -
24.02.2020 08:00:00 4,0 3,8 4,2 5,6 6,4 6,3 8 4 14 7 SSE 1024,5 0,2 0 -
24.02.2020 07:00:00 4,3 4,0 4,4 5,8 6,5 6,3 3 2 7 4 E 1025,5 0,3 0 -
24.02.2020 06:00:00 4,3 3,7 4,4 5,9 6,6 6,3 0 0 6 4 N 1026,1 2,5 0 -
24.02.2020 05:00:00 4,8 4,2 4,8 6,1 6,7 6,3 4 2 17 9 SSW 1026,2 6 0 -
24.02.2020 04:00:00 5,1 4,1 4,9 6,3 6,8 6,3 9 5 16 9 WSW 1026,2 24 0 -
24.02.2020 03:00:00 5,5 4,7 5,3 6,5 6,9 6,3 9 5 14 8 SW 1026,2 37 0 -
24.02.2020 02:00:00 5,5 4,7 5,4 6,7 6,9 6,3 6 4 17 9 SW 1026,1 55 0 -
24.02.2020 01:00:00 5,5 4,4 5,4 7,1 7,0 6,3 14 7 40 22 NW 1026,1 53 0 -
24.02.2020 00:00:00 6,7 5,8 6,6 7,9 6,9 6,3 21 11 41 22 NNW 1025,3 14 0 -
23.02.2020 23:00:00 8,9 8,0 8,5 8,3 6,9 6,3 24 13 54 29 W 1023,5 7 0 -
23.02.2020 22:00:00 9,9 9,4 9,6 8,4 6,8 6,3 37 20 71 38 WSW 1022,1 3,5 0 -
23.02.2020 21:00:00 9,8 9,1 9,5 8,3 6,7 6,3 44 24 74 40 WSW 1020,9 10 0 -
23.02.2020 20:00:00 9,7 8,9 9,3 8,2 6,7 6,3 45 24 80 43 SW 1020,2 4,6 0 -
23.02.2020 19:00:00 9,5 8,6 9,1 8,1 6,6 6,3 46 25 81 44 WSW 1019,9 8 0 -
23.02.2020 18:00:00 9,8 7,8 9,4 8,0 6,5 6,3 48 26 90 48 WSW 1019,7 28 0 -
23.02.2020 17:00:00 9,5 7,7 9,1 8,1 6,5 6,3 44 24 73 40 WSW 1019,4 29 0 -
23.02.2020 16:00:00 9,7 7,3 9,6 8,1 6,4 6,3 44 24 74 40 WSW 1019,4 53 0 -
23.02.2020 15:00:00 9,8 7,5 9,6 8,1 6,2 6,3 41 22 70 38 SW 1019,4 37 0 -
23.02.2020 14:00:00 9,9 7,3 9,8 8,0 6,1 6,3 41 22 73 40 WSW 1020,5 60 0 -
23.02.2020 13:00:00 9,5 7,3 9,5 7,7 6,0 6,3 43 23 67 36 SW 1020,8 71 0 -
23.02.2020 12:00:00 9,2 7,3 9,1 7,4 5,9 6,3 39 21 67 36 SW 1021,7 46 0 -
23.02.2020 11:00:00 8,6 7,0 8,5 7,1 5,9 6,3 39 21 63 34 SW 1021,3 52 0 -
23.02.2020 10:00:00 8,3 6,7 8,2 6,9 5,8 6,3 43 23 73 40 SW 1021,8 46 0 -
23.02.2020 09:00:00 7,9 6,7 7,8 6,6 5,8 6,3 46 25 73 39 SW 1021,9 42 0 -
23.02.2020 08:00:00 7,3 6,4 7,0 6,4 5,7 6,3 44 24 64 35 SW 1022,5 33 0 -
23.02.2020 07:00:00 7,4 6,3 7,2 6,4 5,7 6,3 36 19 56 30 SW 1023,7 30 0 -
23.02.2020 06:00:00 7,5 6,5 7,1 6,4 5,7 6,3 33 18 48 26 SW 1024,2 29 0 -
23.02.2020 05:00:00 7,7 6,5 7,2 6,2 5,6 6,3 32 17 46 25 SW 1024,8 34 0 -
23.02.2020 04:00:00 7,6 6,4 6,9 6,3 5,6 6,3 33 18 50 27 WSW 1025,9 24 0 -
23.02.2020 03:00:00 7,6 6,5 7,1 6,3 5,6 6,3 33 18 49 26 SW 1026,6 25 0 -
23.02.2020 02:00:00 7,9 5,9 7,3 6,2 5,5 6,3 33 18 53 29 WSW 1027,1 29 0 -
23.02.2020 01:00:00 8,0 5,7 7,4 6,1 5,5 6,3 36 20 55 30 SW 1027,1 34 0 -
23.02.2020 00:00:00 8,0 5,2 7,6 6,1 5,5 6,3 37 20 52 28 SW 1027,1 43 0 -
22.02.2020 23:00:00 8,1 5,1 7,3 6,0 5,5 6,3 32 18 58 31 SW 1027,5 25 0 -
22.02.2020 22:00:00 8,0 4,8 7,4 6,0 5,5 6,3 36 19 55 30 WSW 1027,8 40 0 -
22.02.2020 21:00:00 8,1 4,1 7,5 6,0 5,5 6,3 32 17 50 27 WSW 1027,8 31 0 -
22.02.2020 20:00:00 8,3 3,5 7,1 6,1 5,4 6,3 32 18 54 29 WSW 1027,6 28 0 -
22.02.2020 19:00:00 9,3 1,6 8,7 6,3 5,4 6,3 32 17 46 25 WSW 1026,5 50 0 -
22.02.2020 18:00:00 9,7 0,9 9,1 6,7 5,3 6,3 31 17 46 25 SW 1026,0 49 0 -
22.02.2020 17:00:00 9,9 1,5 9,5 7,3 5,1 6,3 25 14 38 20 SW 1025,8 50 0 -
22.02.2020 16:00:00 9,6 1,9 9,3 7,5 4,9 6,3 29 15 49 27 SW 1025,9 56 0 -
22.02.2020 15:00:00 9,2 1,8 9,2 8,0 4,5 6,3 30 16 52 28 SW 1025,7 46 0 -
22.02.2020 14:00:00 8,8 1,7 9,3 8,4 4,1 6,3 36 20 54 29 SSW 1025,7 58 33 -
22.02.2020 13:00:00 8,2 1,2 9,2 7,6 3,7 6,3 39 21 58 32 SW 1027,4 42 6 0,0
22.02.2020 12:00:00 7,5 1,4 8,7 7,2 3,4 6,3 37 20 58 31 SW 1028,0 45 56 0,0
22.02.2020 11:00:00 6,1 0,9 6,9 4,4 3,2 6,3 35 19 49 26 SW 1028,4 42 58 0,0
22.02.2020 10:00:00 4,5 0,2 5,3 2,3 3,2 6,3 33 18 46 25 SW 1029,6 36 60 0,0
22.02.2020 09:00:00 2,7 -0,6 3,1 0,7 3,3 6,3 24 13 36 19 SW 1029,6 42 46 0,0
22.02.2020 08:00:00 1,8 -1,0 0,6 0,7 3,4 6,4 23 12 31 17 SW 1029,4 41 0 0,0
22.02.2020 07:00:00 1,7 -1,1 0,4 0,7 3,5 6,4 25 13 35 19 SW 1028,2 40 0 0,0
22.02.2020 06:00:00 2,2 -0,8 0,6 0,6 3,7 6,4 23 13 34 18 SW 1029,3 44 0 0,0
22.02.2020 05:00:00 2,0 -0,7 0,4 0,8 3,9 6,4 23 12 32 18 SW 1029,5 41 0 0,0
22.02.2020 04:00:00 2,6 -0,5 1,1 1,0 4,0 6,4 24 13 35 19 SW 1029,3 42 0 0,0
22.02.2020 03:00:00 2,9 -0,6 1,2 1,1 4,2 6,4 24 13 36 19 SW 1029,8 45 0 0,0
22.02.2020 02:00:00 2,9 -0,5 1,6 1,3 4,4 6,4 25 13 37 20 SW 1029,6 42 0 0,0
22.02.2020 01:00:00 2,4 -0,4 1,0 1,6 4,6 6,4 24 13 30 16 SW 1029,8 43 0 0,0
22.02.2020 00:00:00 3,2 -0,1 1,7 2,0 4,8 6,4 21 11 30 16 SW 1030,3 40 0 0,0
21.02.2020 23:00:00 3,4 0,2 1,8 2,4 5,0 6,4 22 12 32 18 SW 1030,7 35 0 0,0
21.02.2020 22:00:00 3,7 0,2 2,0 2,8 5,2 6,4 20 11 32 18 SW 1030,8 37 0 0,0
21.02.2020 21:00:00 4,1 0,1 3,1 3,3 5,4 6,4 22 12 34 18 SW 1030,6 38 0 0,0
21.02.2020 20:00:00 4,2 -0,2 2,8 3,7 5,6 6,4 18 10 28 15 SW 1030,5 41 0 0,0
21.02.2020 19:00:00 4,5 -0,6 3,0 4,5 5,7 6,4 18 10 25 14 WSW 1030,6 41 0 0,0
21.02.2020 18:00:00 5,4 -0,1 4,1 5,8 5,7 6,4 14 8 32 18 SW 1030,0 48 0 0,0
21.02.2020 17:00:00 6,6 -0,2 6,7 6,9 5,5 6,4 17 9 36 19 WSW 1030,0 54 2 0,0
21.02.2020 16:00:00 7,2 0,3 8,0 7,6 5,3 6,4 16 9 33 18 WSW 1030,2 55 32 0,0
21.02.2020 15:00:00 6,6 0,1 7,0 8,2 5,0 6,4 19 10 38 21 WSW 1030,5 45 30 0,0
21.02.2020 14:00:00 6,8 0,4 8,1 8,4 4,6 6,4 24 13 41 22 WSW 1030,9 51 3 0,0
21.02.2020 13:00:00 6,3 1,5 8,2 7,9 4,3 6,4 21 12 37 20 SW 1031,3 32 24 0,0
21.02.2020 12:00:00 5,3 1,6 7,4 6,6 4,0 6,4 23 12 36 19 SW 1031,6 34 35 0,0
21.02.2020 11:00:00 4,7 1,9 7,1 5,0 3,8 6,3 22 12 35 19 SW 1031,3 28 57 0,0
21.02.2020 10:00:00 3,0 0,9 4,1 3,0 3,9 6,4 20 11 34 19 SW 1031,3 34 38 0,0
21.02.2020 09:00:00 1,8 0,6 1,9 1,3 4,0 6,4 20 11 29 16 SW 1031,1 19 30 0,0
21.02.2020 08:00:00 0,9 0,1 0,1 1,0 4,2 6,4 19 11 27 14 WSW 1030,4 21 0 0,0
21.02.2020 07:00:00 0,7 -0,1 -0,3 1,2 4,4 6,4 16 9 28 15 WSW 1029,6 25 0 0,0
21.02.2020 06:00:00 1,3 0,3 0,3 1,7 4,6 6,4 16 8 35 19 WSW 1028,8 30 0 0,0
21.02.2020 05:00:00 1,7 0,4 0,5 1,9 4,8 6,4 21 11 41 22 WSW 1027,6 33 0 0,0
21.02.2020 04:00:00 1,7 0,2 0,2 2,0 5,0 6,4 17 9 34 18 WSW 1026,9 41 0 0,0
21.02.2020 03:00:00 2,5 0,4 1,0 2,7 5,1 6,3 18 10 37 20 WSW 1026,2 45 0 0,0
21.02.2020 02:00:00 3,4 0,9 2,7 3,4 5,3 6,3 25 13 46 25 W 1024,9 55 0 0,0
21.02.2020 01:00:00 3,5 1,4 2,3 3,6 5,4 6,3 26 14 45 24 WSW 1023,4 69 0 0,0
21.02.2020 00:00:00 3,9 1,7 3,1 4,2 5,5 6,3 33 18 58 32 WSW 1021,7 70 0 0,0
20.02.2020 23:00:00 4,5 2,4 4,0 5,1 5,5 6,3 32 18 66 36 W 1019,7 75 0 1,6
20.02.2020 22:00:00 5,8 4,8 5,4 5,3 5,6 6,3 40 22 63 34 SW 1017,0 12 0 1,2
20.02.2020 21:00:00 6,8 2,8 5,7 5,2 5,6 6,3 39 21 58 32 SW 1016,5 32 0 0,0
20.02.2020 20:00:00 7,0 1,9 6,5 5,3 5,7 6,3 34 18 58 31 SW 1017,0 75 0 0,0
20.02.2020 19:00:00 7,2 1,3 6,5 5,4 5,7 6,3 36 19 56 31 SW 1017,4 66 0 0,0
20.02.2020 18:00:00 6,7 2,0 6,2 5,9 5,7 6,3 31 17 51 27 SW 1017,8 67 0 0,0
20.02.2020 17:00:00 6,7 2,6 6,6 6,2 5,7 6,3 31 17 55 30 SSW 1018,4 56 0 0,0
20.02.2020 16:00:00 6,9 2,5 6,8 6,5 5,6 6,3 29 15 53 28 SW 1019,1 64 0 0,0
20.02.2020 15:00:00 6,9 2,6 6,5 6,7 5,5 6,3 27 15 48 26 SW 1019,4 65 0 0,0
20.02.2020 14:00:00 6,7 2,9 6,2 6,9 5,4 6,3 26 14 55 30 SW 1020,2 64 0 0,0
20.02.2020 13:00:00 6,7 3,4 6,5 7,4 5,1 6,3 28 15 46 25 SW 1020,8 49 0 0,0
20.02.2020 12:00:00 6,7 4,2 7,0 7,6 4,9 6,3 30 16 48 26 SW 1021,3 31 13 0,1
20.02.2020 11:00:00 6,5 5,3 7,5 6,1 4,8 6,3 24 13 40 21 SW 1021,6 34 2 0,1
20.02.2020 10:00:00 5,4 4,7 5,5 5,0 4,8 6,3 20 11 36 20 SW 1022,2 20 0 0,0
20.02.2020 09:00:00 5,0 4,6 5,0 4,6 4,7 6,3 22 12 34 18 SW 1022,1 14 0 0,0
20.02.2020 08:00:00 4,6 4,4 4,6 4,3 4,7 6,3 21 12 32 18 SW 1022,1 6 0 0,0
20.02.2020 07:00:00 4,4 4,2 4,4 4,2 4,7 6,3 21 12 36 20 SW 1022,1 2,9 0 0,0
20.02.2020 06:00:00 4,1 3,9 4,1 4,1 4,7 6,3 23 13 35 19 SW 1022,5 1,8 0 0,1
20.02.2020 05:00:00 3,9 3,5 3,8 4,0 4,8 6,3 25 13 37 20 SSW 1022,6 7 0 0,0
20.02.2020 04:00:00 3,6 3,3 3,6 3,9 4,8 6,3 18 10 29 16 SSW 1023,2 6 0 0,0
20.02.2020 03:00:00 3,4 3,1 3,4 3,8 4,8 6,3 21 11 27 15 SSW 1023,8 4,3 0 0,2
20.02.2020 02:00:00 3,5 3,1 3,4 3,8 4,8 6,3 19 11 32 18 SW 1024,5 17 0 0,5
20.02.2020 01:00:00 3,5 2,9 3,3 3,6 4,9 6,3 18 10 34 19 SW 1024,9 15 0 0,4
20.02.2020 00:00:00 4,1 1,8 3,4 3,5 5,0 6,3 23 12 33 18 SW 1025,0 23 0 0,0
19.02.2020 23:00:00 4,1 1,3 3,6 3,4 5,1 6,3 22 12 33 18 SW 1025,1 34 0 0,0
19.02.2020 22:00:00 3,7 1,1 2,9 3,2 5,3 6,3 21 11 28 15 SW 1025,7 22 0 0,0
19.02.2020 21:00:00 3,3 -0,5 2,7 3,0 5,6 6,3 19 10 24 13 SW 1025,8 43 0 0,0
19.02.2020 20:00:00 2,3 -1,0 0,1 3,2 5,8 6,3 12 7 27 14 SW 1026,3 44 0 0,0
19.02.2020 19:00:00 3,4 -1,0 1,9 4,1 6,0 6,3 18 10 23 13 SW 1025,9 44 0 0,0
19.02.2020 18:00:00 4,4 -1,1 3,1 5,1 6,1 6,3 16 9 44 24 WSW 1025,4 49 0 0,0
19.02.2020 17:00:00 5,4 -2,0 5,0 6,6 6,0 6,3 27 15 46 25 W 1025,0 48 19 0,0
19.02.2020 16:00:00 5,9 -1,0 6,6 7,4 5,9 6,3 26 14 44 24 WSW 1024,7 48 20 0,0
19.02.2020 15:00:00 5,9 -0,8 6,8 8,1 5,6 6,3 18 10 42 23 W 1024,4 46 35 0,0
19.02.2020 14:00:00 6,2 -1,0 8,7 9,3 5,2 6,3 30 16 46 25 W 1024,1 62 57 0,0
19.02.2020 13:00:00 6,4 0,2 9,1 8,2 4,9 6,3 26 14 43 23 W 1023,8 46 38 0,0
19.02.2020 12:00:00 5,1 0,7 7,3 7,5 4,7 6,3 25 14 48 26 W 1023,9 53 56 0,0
19.02.2020 11:00:00 4,2 1,4 4,8 5,0 4,7 6,3 24 13 42 23 W 1023,2 38 10 0,0
19.02.2020 10:00:00 3,5 1,8 5,3 3,8 4,7 6,3 19 10 54 29 W 1022,5 41 23 0,5
19.02.2020 09:00:00 1,6 0,6 1,5 3,5 4,8 6,3 21 11 51 28 W 1021,7 11 0 1,2
19.02.2020 08:00:00 3,2 2,2 2,6 3,5 4,9 6,3 23 12 52 28 W 1020,2 38 0 1,1
19.02.2020 07:00:00 4,0 2,9 3,5 4,1 4,9 6,3 30 16 50 27 WSW 1019,2 21 0 0,0
19.02.2020 06:00:00 4,2 3,3 3,8 4,2 4,9 6,3 29 16 58 31 WSW 1018,8 64 0 0,4
19.02.2020 05:00:00 4,2 3,6 4,0 4,2 4,9 6,3 37 20 60 32 SW 1018,3 11 0 1,5
19.02.2020 04:00:00 4,5 3,7 4,2 4,2 4,9 6,3 38 20 66 35 SW 1018,7 14 0 1,1
19.02.2020 03:00:00 4,6 3,7 4,2 4,1 5,0 6,3 37 20 56 30 SW 1019,8 8 0 0,9
19.02.2020 02:00:00 5,1 2,8 4,6 3,9 5,0 6,3 34 18 54 29 SW 1021,0 43 0 0,0
19.02.2020 01:00:00 4,7 2,7 4,3 3,5 5,1 6,3 30 16 49 26 SW 1022,1 47 0 0,0
19.02.2020 00:00:00 4,2 2,2 3,2 3,5 5,2 6,3 30 16 47 26 SW 1023,2 54 0 0,0
18.02.2020 23:00:00 4,2 2,2 2,9 3,6 5,4 6,3 24 13 39 21 SW 1024,4 46 0 0,0
18.02.2020 22:00:00 4,3 2,3 3,3 3,7 5,5 6,3 23 13 42 23 SW 1025,1 49 0 0,0

tt = Température de l'air
td = dewpoint
tt 5cm = Température de l'air 5cm
tt -5cm = Température de l'air -5cm
tt -20cm = Température de l'air -20cm
tt -100cm = Température de l'air -100cm
ff = Vitesse du vent
fx = gusts
dd = Direction du vent
ppp = reduced air pressure
vv = visibility
sd = Ensoleillement
rr = Quantités de précipitations

stations d'obs. à proximité